Regional Weather Roundup
Issued by NWS

Home | Current Version | Previous Version | Text Only | Print | Product List | Glossary Off
Versions: 1 2 3 4 5 6 7 8 9 10 11 12 13 14 15 16 17 18 19 20 21 22 23 24 25 26 27 28 29 30 31 32 33 34 35 36 37 38 39 40 41 42 43 44 45 46 47 48 49 50

000
ASUS44 KMEG 030710
RWRTN
TENNESSEE HOURLY STATE WEATHER ROUNDUP
NATIONAL WEATHER SERVICE MEMPHIS TN
200 AM CDT FRI JUL 03 2015

TNZ002-004-019-021-049-052-054-088>092-030800-
WEST TENNESSEE

CITY           SKY/WX    TMP DP  RH WIND       PRES   REMARKS
MEMPHIS INTL   CLOUDY    73  68  84 S6        29.88F
NWS MEMPHIS      N/A     72 N/A N/A MISG        N/A
JACKSON        CLOUDY    72  68  87 W6        29.86F
DYERSBURG        N/A    N/A N/A N/A MISG        N/A
PARIS          MOCLDY    72  70  94 VRB5      29.84F
LEXINGTON      CLOUDY    70  68  94 SW3       29.86F
$$

TNZ008-025-027-028-033-062-065-066-030800-
NORTH MIDDLE TENNESSEE

CITY           SKY/WX    TMP DP  RH WIND       PRES   REMARKS
NASHVILLE      CLOUDY    74  73  97 SW6       29.86F
CLARKSVILLE    CLOUDY    73  72  96 S5        29.85F
SMYRNA         LGT RAIN  74  72  93 W9        29.87F
COOKEVILLE     CLOUDY    73  73 100 CALM      29.88F
CROSSVILLE     LGT RAIN  70  67  90 W6        29.94F FOG
$$

TNZ061-075-076-078-094-096-097-030800-
SOUTH MIDDLE TENNESSEE

CITY           SKY/WX    TMP DP  RH WIND       PRES   REMARKS
FAYETTEVILLE     N/A     73  72  94 SW7       29.90F
TULLAHOMA      MOCLDY    72  70  94 SW6       29.91F
WINCHESTER     CLOUDY    73  72  94 SW8       29.91F
MCMINNVILLE    MOCLDY    73  73 100 CALM      29.90S
COLUMBIA       CLOUDY    73  70  88 SW5       29.87S
SHELBYVILLE    MOCLDY   N/A N/A N/A MISG        N/A
$$

TNZ017-018-042-046-047-030800-
NORTHEAST TENNESSEE

CITY           SKY/WX    TMP DP  RH WIND       PRES   REMARKS
TRI CITIES     CLOUDY    68  67  96 CALM      29.93F
ELIZABETHTON   LGT RAIN  64  64 100 E5        29.94F
$$

TNZ012-013-036-069-073-074-030800-
CENTRAL EAST TENNESSEE

CITY           SKY/WX    TMP DP  RH WIND       PRES   REMARKS
KNOXVILLE      RAIN      71  69  93 SW8       29.89F FOG
OAK RIDGE      LGT RAIN  71  69  93 CALM      29.92F
GATLINBURG     CLOUDY    72  66  83 SW5       29.91F
MORRISTOWN       N/A     72  70  94 SW6       29.93F
$$

TNZ083-085-099-030800-
SOUTHEAST TENNESSEE

CITY           SKY/WX    TMP DP  RH WIND       PRES   REMARKS
CHATTANOOGA      N/A     75  71  87 SW5       29.91F
$$

SKY/WX REPORTED AS FAIR MEANS FEW OR NO CLOUDS BELOW
12 THOUSAND FEET.



USA.gov is the U.S. government's official web portal to all federal, state and local government web resources and services.